Regional Weather Roundup
Issued by NWS Cleveland, OH

Home | Current Version | Previous Version | Graphics & Text | Print | Product List | Glossary On
Versions: 1 2 3 4 5 6 7 8 9 10 11 12 13 14 15 16 17 18 19 20 21 22 23 24 25 26 27 28 29 30 31 32 33 34 35 36 37 38 39 40 41 42 43 44 45 46 47 48 49 50
000
ASUS41 KCLE 052110
RWRCLE
OHIO REGIONAL WEATHER ROUNDUP
NATIONAL WEATHER SERVICE WILMINGTON, OH
400 PM EST THU MAR 05 2015

NOTE: "FAIR" INDICATES FEW OR NO CLOUDS BELOW 12,000 FEET WITH NO
SIGNIFICANT WEATHER AND/OR OBSTRUCTIONS TO VISIBILITY.

OHZ001>008-015>018-024>027-034-035-043-044-052200-
   NORTHWEST OHIO

CITY           SKY/WX    TMP DP  RH WIND       PRES   REMARKS
DEFIANCE       CLOUDY    20   4  50 NW10      30.42R WCI   9
FINDLAY        CLOUDY    20   4  50 N10       30.40R WCI   9
TOLEDO EXPRESS MOSUNNY   18   3  52 NW8       30.41R WCI   8
TOLEDO EXEC    PTSUNNY   19   2  47 NW10      30.42R WCI   7
LIMA           CLOUDY    18   5  57 NW10      30.39R WCI   6
$$

OHZ009>014-019>023-028>033-038-089-052200-
   NORTHEAST OHIO

CITY           SKY/WX    TMP DP  RH WIND       PRES   REMARKS
CLE-HOPKINS    MOSUNNY   14   1  56 N14       30.42R WCI  -1
CLE-LAKEFRONT  PTSUNNY   14   1  56 NW10      30.41R WCI   1
CUY CO. ARPT   PTSUNNY   16   3  57 N14       30.38R WCI   1
LORAIN-ELYRIA  MOSUNNY   14   2  58 N12       30.40R WCI   0
ASHTABULA      CLOUDY    10  -2  58 NW9       30.37R WCI  -3
AKRON-CANTON   PTSUNNY   17   1  49 NW14      30.32R WCI   3
WOOSTER        CLOUDY    15   3  59 NW16      30.35R WCI  -1
MANSFIELD      CLOUDY    14   3  61 NW14      30.34R WCI  -1
YOUNGSTOWN     PTSUNNY   14   0  53 NW15      30.31R WCI  -1
$$

OHZ042-051>053-060>062-070>072-077>081-052200-
  SOUTHWEST OHIO

CITY           SKY/WX    TMP DP  RH WIND       PRES   REMARKS
CINC-COVINGTON MOSUNNY   24   8  50 N15       30.39R WCI  11
CINC-LUNKEN    MOSUNNY   24   5  44 NW10      30.44R WCI  14
HAMILTON       MOSUNNY   24   5  44 N15       30.43R WCI  11
DAYTON         MOSUNNY   21   6  52 N17       30.40R WCI   7
WRIGHT-PAT AFB NOT AVBL
DAYTON GENERAL MOSUNNY   21   3  45 NW18      30.38R WCI   6
WILMINGTON     SUNNY     21   5  50 N15       30.36R WCI   8
$$

OHZ036-037-039>041-045>050-054>059-063>069-073>076-082>088-052200-
  CENTRAL AND SOUTHEAST OHIO

CITY           SKY/WX    TMP DP  RH WIND       PRES   REMARKS
COLUMBUS       CLOUDY    20   5  52 NW17      30.37R WCI   5
OSU AIRPORT    MOSUNNY   19   5  54 N14       30.37R WCI   6
BOLTON FIELD   PTSUNNY   19   7  58 NW13      30.38R WCI   7
RICKENBACK AFB PTSUNNY   21   7  54 NW10      30.37R WCI  10
NEWARK         MOSUNNY   21   6  52 NW9       30.34R WCI  11
MARION         PTSUNNY   17   4  56 N14       30.38R WCI   3
LANCASTER      CLOUDY    21   7  54 N12       30.36R WCI   9
ZANESVILLE     PTSUNNY   19   2  47 N9        30.34R WCI   8
NEW PHILLY     MOSUNNY   21   2  43 NW13      30.34R WCI   9
$$



USA.gov is the U.S. government's official web portal to all federal, state and local government web resources and services.